Tracking 19219 objects as of 20-Jul-2018
HD Live streaming from Space Station
objects crossing your sky now

AVUM DEB(ADAPTOR)

Track AVUM DEB(ADAPTOR) now!
10-day predictions


NORAD ID: 42902
Int'l Code: 2017-044C
Perigee: 422.9 km
Apogee: 434.8 km
Inclination: 97.2 °
Period: 93.0 minutes
Semi major axis: 6799 km
RCS: Unknown
Launch date: August 2, 2017
Source: European Space Agency (ESA)
Launch site: FRENCH GUIANA (FRGUI)

Note: This is SATELLITE DEBRIS
aabbcc
Your satellite tracking list
Your tracking list is empty




NASA's NSSDC Master Catalog

Two Line Element Set (TLE):
1 42902U 17044C   18201.19603666  .00009100  00000-0  17391-3 0  9996
2 42902  97.1817 277.1613 0008769 127.6149 232.5900 15.48283465 54353
Source of the keplerian elements: AFSPC